CANX-4

Last updated on Thu Nov 21 2024 00:03:39 GMT+0000 (Coordinated Universal Time)

1 40055U 14034C 24325.51900561 .00002479 00000+0 34127-3 0 9990 2 40055 98.3794 166.8129 0014280 54.1284 306.1250 14.79171664559651
UTC large
Height (km)
Speed (km/s)
/
Latitude / Longitude
Inclination (degrees)
Orbital Period (minutes)
Azimuth
Elevation
Range (km)
Doppler Factor

Next 0 passes for location: London (51.5072 / 0.1276)

Sorry there are no passes over London.